Погода Анучино

Погода Анучино : погода сейчас, прогноз погоды и архив. Всё, что Вы хотите узнать о погоде Анучино!

Хотите узнать прогноз погоды Анучино? Тогда Вам сюда: Погода Анучино

Поиск расширенной информации на нашем сайте:

Другие новости

Новости СМИ2

Главная страница сайта

Новости сайта

03.07.2017

Напоминаем, что на нашем специализированном сайте Метеоцентр.Азия вы можете получить высокодетализированные автоматические прогнозы погоды по пунктам России, СНГ и мира в авиационном формате (включающие направление и скорость ветра, видимость, явления погоды, количество и форму облачности, нижнюю и верхнюю границу облачности).


Погода Анучино - сегодня

Время (UTC), дата Ветер
(°,м/с) 
Видим.   Явления Облачность Т
(°С)
Тd
(°С)
f(%) Тe
(°С)
Pmin
(гПа)
dP
(гПа)
Po
(мм)
O2
(г/м3)
Тmin Tmax R s Состояние
почвы
15 20.04.18 200 (Ю) 20000 м    ясно 
+14.4 +1.3 41 +15  1009.4  -1.8  740  283           
18 20.04.18 230 (ЮЗ) 20000 м    ясно 
+11.6 +2.4 53 +12  1008  -1.6  739  285           
00 21.04.18 270 (З) 5-12{13}  20000 м    ясно 
+22.1 -6.5 14 +22  1008.1  740  276           
03 21.04.18 360 (С) 5{12}  20000 м    4/0 верхняя 
[Cs]
+20 +6.8 42 +20  1010.2  1.9  741  277           
06 21.04.18 020 (С) 20000 м    10/0 средняя 
[As op]
+15.2 +5.7 53 +15  1013.5  2.9  744  283           
12 21.04.18 270 (З) 20000 м    10/0 средняя 
[Ac As]
+8.2 +2.9 69 +9  1020.9  3.3  749  292           
15 21.04.18 210 (ЮЗ) 20000 м    6/0 верхняя 
[Ci fib]
+4.5 +1.4 80 +5  1022.6  1.3  750  297           
18 21.04.18 тихо ()   20000 м    10/0 верхняя 
[Ci sp]
+4 +0.4 77 +4  1023.8  1.1  750  298           
00 22.04.18 060 (СВ) 20000 м    10/0 верхняя 
[Cc]
+10.6 -7.8 27 +11  1026.4  1.5  753  293           
03 22.04.18 030 (СВ) 20000 м    8/0 верхняя 
[Ci sp]
+15 -10.3 16 +16  1025  -1.1  752  288           
06 22.04.18 350 (С) 20000 м    9/0 верхняя 
[Cs]
+15.7 -9.7 16 +16  1024.1  -0.8  751  287           
12 22.04.18 230 (ЮЗ) 20000 м    8/0 верхняя 
[Ci fib]
+4.5 -5.3 49 +5  1027.1  2.2  753  299           
15 22.04.18 240 (ЮЗ) 20000 м    3/0 верхняя 
[Cs]
+1.4 -5.9 58 1028.1  0.7  753  303           
18 22.04.18 220 (ЮЗ) 20000 м    ясно 
-1.2 -5.8 71 -1  1028.3  753  306           
00 23.04.18 240 (ЮЗ) 20000 м    3/0 верхняя 
[Cs]
+8.7 -5.4 36 +9  1027.8  -0.5  754  295           
03 23.04.18 020 (С) 20000 м    10/0 верхняя 
[Cs]
+17.8 -10.1 14 +19  1024.3  -2.7  752  285           
06 23.04.18 030 (СВ) 20000 м    10/0 верхняя 
[Cs]
+18.7 -12.9 11 +20  1021.3  -2.7  749  284           
12 23.04.18 210 (ЮЗ) 20000 м    8/0 верхняя 
[Ci sp]
+11.5 -10.5 20 +11  1022.2  1.5  750  291           
15 23.04.18 210 (ЮЗ) 20000 м    8/0 верхняя 
[Ci sp]
+5.4 -7.2 40 +6  1022.5  -0.2  750  297           
18 23.04.18 220 (ЮЗ) 20000 м    6/0 верхняя 
[Cs]
+2.7 -7.2 48 +3  1021.8  -0.8  749  300           
00 24.04.18 250 (З) 20000 м    10/0 верхняя 
[Cc]
+10.1 -7.9 27 +11  1019.4  -1  748  291           
03 24.04.18 040 (СВ) 20000 м    10/0 верхняя 
[Cc]
+18 -9.7 14 +19  1015.8  -2.9  745  283           
06 24.04.18 010 (С) 20000 м    10/0 верхняя 
[Ci fib]
+20.5 -9.5 12 +21  1012.7  -2.9  743  279           
12 24.04.18 210 (ЮЗ) 20000 м    10/0 верхняя 
[Ci fib]
+10 -1.9 43 +11  1014.3  1.7  744  289           
15 24.04.18 220 (ЮЗ) 20000 м    3/0 верхняя 
[Ci fib]
+4.9 -2.9 57 +5  1014.8  744  295           
Время (UTC), дата Ветер
(°,м/с) 
Видим.   Явления Облачность Т
(°С)
Тd
(°С)
f(%) Тe
(°С)
Pmin
(гПа)
dP
(гПа)
Po
(мм)
O2
(г/м3)
Тmin Tmax R s Состояние
почвы

Для получения пояснительной информации подведите курсор к названию столбца.

ПОГОДА Анучино - архив

Всё, что Вы хотите узнать о погоде Анучино - удобно и подробно!

Выберите нужную дату (начиная с 1 января 2015* года) и нажмите кнопку "Найти".
Будут отображены архивные сводки погоды по пункту Анучино, начиная с указанной даты.


Отображать данные в формате CSV (для использования в таблицах Excel)


Внимание! Наш архив погоды предназначен исключительно для личного некоммерческого использования в познавательных целях. Если Вам необходимы официальные справки о состоянии погоды (для производственных, юридических, коммерческих и т.п. целей), обращайтесь в органы Росгидромета.

*Примечание: данная дата относится к архиву по метеостанциям СССР (Россия, СНГ, Балтия).
Архив по метеостанциям Зарубежной Европы и Азии (кроме Китая) хранится 10 дней, по другим регионам земного шара (Китай, Африка, Америка, Австралия, Океания) - 1 день.

Анучино - район местоположения метеостанции


Название, широта, долгота, высота метеостанции:
Анучино 44°ш. 133.1°д. 188 м над ур. моря [Российская Федерация]

Дополнительная информация

В oтличие oт бoльшинства пoгoдных сайтoв мы публикуем пoдрoбную метеoинфoрмацию в детальнoм прoфессиoнальнoм фoрмате.

Характеристики температуры и влажнoсти вoздуха измеряются на высoте 2 м в тени вдали oт зданий и деревьев.
Скoрoсть ветра измеряется на высoте 10 м (на урoвне рoста челoвека скoрoсть ветра ниже в 1.5-2 раза). Если метеoстанция нахoдится в гoрoде или в лесу, тo скoрoсть ветра занижена на 2-4 м/с пo сравнению с oткрытым местoм. Скoрoсть ветра над акватoриями крупных рек и oзёр, а также на вершинах хoлмoв на 2-5 м/с выше, чем в oбычных услoвиях.
Атмoсфернoе давление в разных тoчках местнoсти мoжет значительнo oтличаться oт давления на метеoстанции, в зависимoсти oт услoвий рельефа (при пoдъёме на 10 м давление пoнижается примернo на 1 мм рт.ст.).